Burlington, IA

6:22 AM CST on January 24, 2018 (GMT -0600)
Burlington Regional

Weather History for KBRL - February, 2014

Change the Weather History Date:

Friday, February 7, 2014

  Actual Average Record
Temperature  
Mean Temperature 1 °F 28 °F  
Max Temperature 12 °F 37 °F 66 °F (2009)
Min Temperature -11 °F 19 °F -11 °F (2014)
Degree Days  
Heating Degree Days 64 37  
Month to date heating degree days 404 264  
Since 1 July heating degree days 4379 3665  
Cooling Degree Days 0 0  
Month to date cooling degree days 0 0  
Year to date cooling degree days 0 0  
Moisture  
Dew Point -5 °F    
Average Humidity 71    
Maximum Humidity 83    
Minimum Humidity 58    
Precipitation  
Precipitation 0.00 in 0.05 in 0.73 in (2013)
Month to date precipitation 0.72 0.33  
Year to date precipitation 1.80 1.57  
Sea Level Pressure  
Sea Level Pressure 30.43 in    
Wind  
Wind Speed 7 mph (SSW)    
Max Wind Speed 15 mph    
Max Gust Speed 17 mph    
Visibility 10 miles    
Events      
T = Trace of Precipitation, MM = Missing Value Source: NWS Daily Summary

Daily Weather History Graph

Daily Weather History Graph

Search for Another Location

Airport or City:

Trip Planner

Search our weather history database for the weather conditions in past years. The results will help you decide how hot, cold, wet, or windy it might be!

Date:

Astronomy

Feb. 07, 2014 Rise Set
Actual Time 7:08 AM CST 5:29 PM CST
Civil Twilight 6:39 AM CST 5:58 PM CST
Nautical Twilight 6:07 AM CST 6:30 PM CST
Astronomical Twilight 5:35 AM CST 7:02 PM CST
Moon 11:40 AM CST (2/7) 1:24 AM CST (2/7)
Length of Visible Light 11h 18m
Length of Day
10h 21m
First Quarter, 59% of the Moon is Illuminated
Feb 7
First Quarter
Feb 14
Full
Feb 22
Last Quarter
Mar 1
New
Mar 8
First Quarter

Hourly Weather History & Observations

Time (CST) Temp. Windchill Dew Point Humidity Pressure Visibility Wind Dir Wind Speed Gust Speed Precip Events Conditions
12:53 AM -5.1 °F -17.6 °F -11.0 °F 76% 30.48 in 10.0 mi West 5.8 mph - N/A   Clear
1:53 AM -2.0 °F -12.2 °F -9.0 °F 72% 30.46 in 10.0 mi West 4.6 mph - N/A   Mostly Cloudy
2:53 AM -2.9 °F -13.3 °F -9.0 °F 75% 30.46 in 10.0 mi SW 4.6 mph - N/A   Clear
3:53 AM -6.0 °F -18.6 °F -11.0 °F 79% 30.46 in 10.0 mi SW 5.8 mph - N/A   Clear
4:53 AM -7.1 °F -15.9 °F -11.0 °F 83% 30.46 in 10.0 mi SW 3.5 mph - N/A   Scattered Clouds
5:53 AM -8.0 °F -19.2 °F -11.9 °F 83% 30.46 in 10.0 mi WSW 4.6 mph - N/A   Clear
6:53 AM -7.1 °F -19.9 °F -11.0 °F 83% 30.47 in 9.0 mi SSW 5.8 mph - N/A   Clear
7:53 AM -8.0 °F -21.0 °F -11.9 °F 83% 30.49 in 10.0 mi WSW 5.8 mph - N/A   Clear
8:53 AM -5.1 °F -15.8 °F -9.0 °F 83% 30.49 in 10.0 mi SW 4.6 mph - N/A   Clear
9:53 AM 1.0 °F -8.7 °F -6.0 °F 72% 30.50 in 10.0 mi SSW 4.6 mph - N/A   Clear
10:53 AM 3.9 °F -6.9 °F -5.1 °F 66% 30.49 in 10.0 mi SSW 5.8 mph - N/A   Clear
11:53 AM 9.0 °F 0.6 °F -2.0 °F 61% 30.47 in 10.0 mi SSW 4.6 mph - N/A   Clear
12:53 PM 10.9 °F -3.4 °F -0.9 °F 59% 30.45 in 10.0 mi SSW 11.5 mph - N/A   Clear
1:53 PM 12.0 °F -2.0 °F -0.0 °F 59% 30.42 in 10.0 mi SSW 11.5 mph - N/A   Overcast
2:53 PM 12.0 °F -2.7 °F -0.9 °F 56% 30.41 in 10.0 mi SSW 12.7 mph - N/A   Clear
3:53 PM 12.0 °F -2.0 °F -0.9 °F 56% 30.38 in 10.0 mi SSW 11.5 mph - N/A   Clear
4:53 PM 10.0 °F -1.9 °F -2.0 °F 58% 30.38 in 10.0 mi South 8.1 mph - N/A   Overcast
5:53 PM 10.0 °F 0.4 °F -0.9 °F 61% 30.37 in 10.0 mi South 5.8 mph - N/A   Overcast
6:53 PM 9.0 °F -2.2 °F -0.9 °F 64% 30.38 in 10.0 mi South 6.9 mph - N/A   Overcast
7:53 PM 9.0 °F -0.9 °F -0.9 °F 64% 30.38 in 10.0 mi South 5.8 mph - N/A   Mostly Cloudy
8:53 PM 10.9 °F 0.2 °F 1.0 °F 64% 30.37 in 10.0 mi South 6.9 mph - N/A   Overcast
9:53 PM 12.0 °F 2.7 °F 1.9 °F 64% 30.36 in 10.0 mi South 5.8 mph - N/A   Overcast
10:53 PM 12.0 °F 0.5 °F 1.9 °F 64% 30.35 in 10.0 mi South 8.1 mph - N/A   Overcast
11:53 PM 12.0 °F 4.1 °F 1.9 °F 64% 30.34 in 10.0 mi South 4.6 mph - N/A   Overcast